Flag for Germany Weather past 2 weeks in Germering, Bavaria, Germany

Now
54 °F

Passing clouds.


Feels Like: 53 °F
Forecast: 49 / 64 °F
Wind: 3 mph from Southwest

Location: Oberpfaffenhofen

Current Time: Oct 1, 2014 at 10:36:38 PM

Latest Report: Oct 1, 2014 at 8:50 PM


Visibility: 4 mi

Pressure: 30.36 "Hg

Humidity: 94%

Dew point: 52 °F

Location of GermeringLocation

Historic Weather in Germering — Graph

°F

Germering temperature yesterday

Maximum temperature yesterday: 66 °F (at 2:20 PM)
Minimum temperature yesterday: 54 °F (at 6:50 AM)
Average temperature yesterday: 60 °F

Past Weeks' High & Low Weather Summary

 TemperatureHumidityPressure
High75 °F (Sep 18, 2:50 PM)100% (Sep 17, 6:50 AM)30.39 "Hg (Sep 17, 6:50 AM)
Low36 °F (Sep 24, 7:50 AM)47% (Sep 18, 2:50 PM)29.89 "Hg (Sep 24, 3:50 PM)
Average58 °F78%30.13 "Hg
* Reported Sep 17 6:50 AM — Oct 1 8:50 PM, Germering, Weather by CustomWeather, © 2014

Note: Actual official high and low records may vary slightly from our data, if they occured in-between our weather recording intervals... More about our weather records

Advertising

Germering weather history for previous 24 hours

 ConditionsComfort  
Time TempWeatherWind HumidityBarometerVisibility
8:50 PM
Oct 1
54 °FPassing clouds.3 mph94%30.36 "Hg4 mi
8:20 PM57 °FPassing clouds.3 mph88%30.33 "Hg5 mi
7:50 PM57 °FPartly sunny.5 mph94%30.33 "Hg5 mi
7:20 PM59 °FBroken clouds.3 mph88%30.33 "Hg5 mi
6:50 PM59 °FBroken clouds.2 mph88%30.30 "Hg6 mi
6:20 PM59 °FBroken clouds.6 mph88%30.30 "HgN/A
5:50 PM61 °FPartly sunny.7 mph83%30.30 "HgN/A
5:20 PM63 °FScattered clouds.7 mph83%30.30 "HgN/A
4:50 PM64 °FScattered clouds.2 mph73%30.30 "HgN/A
4:20 PM63 °FScattered clouds.3 mph77%30.30 "HgN/A
3:50 PM63 °FScattered clouds.7 mph73%30.30 "HgN/A
3:20 PM64 °FPartly sunny.2 mph73%30.30 "HgN/A
2:50 PM63 °FSprinkles. Broken clouds.3 mph83%30.30 "Hg6 mi
2:20 PM63 °FBroken clouds.5 mph77%30.30 "Hg5 mi
1:50 PM61 °FBroken clouds.3 mph83%30.33 "Hg5 mi
1:20 PM61 °FBroken clouds.3 mph83%30.33 "Hg4 mi
12:50 PM61 °FPartly sunny.3 mph83%30.33 "Hg4 mi
12:20 PM61 °FPartly sunny.5 mph83%30.33 "Hg4 mi
11:50 AM61 °FCloudy.3 mph88%30.33 "Hg3 mi
11:20 AM59 °FMore clouds than sun.6 mph94%30.33 "Hg3 mi
10:50 AM57 °FLight rain. Fog.6 mph94%30.33 "Hg2 mi
10:20 AM57 °FLight rain. Fog.6 mph94%30.30 "Hg2 mi
9:50 AM57 °FLight rain. Fog.5 mph100%30.30 "Hg3 mi
9:20 AM57 °FLight rain. Mostly cloudy.3 mph94%30.30 "Hg4 mi
8:50 AM57 °FLight rain. More clouds than sun.3 mph94%30.30 "Hg4 mi
8:20 AM57 °FRain. Fog.6 mph94%30.30 "Hg3 mi
7:50 AM57 °FRain. Fog.5 mph94%30.30 "Hg2 mi
7:20 AM57 °FLight rain. Fog.5 mph94%30.30 "Hg2 mi
6:50 AM57 °FLight rain. Fog.5 mph94%30.30 "Hg2 mi
Weather by CustomWeather, © 2014

See weather overviewHow to use our weather pages